Location: Clarion
(42.7316°N, 93.7330°W)
Time: 09:04:09
(UTC+00:00)

Cosmos 1980 Rocket - Pass Details

Date: 22 April 2026
Orbit: 826 x 850 km, 71.0° (Epoch: 16 May)

Event Time Altitude Azimuth Distance (km) Brightness Sun altitude
Rises 05:22:01 0° 345° (NNW) 3,423 6.4 -33.8°
Reaches altitude 10° 05:25:07 10° 1° (N) 2,485 5.4 -33.9°
Maximum altitude 05:29:21 21° 49° (NE) 1,828 4.1 -34.1°
Enters shadow 05:29:37 21° 53° (NE) 1,831 4.1 -34.1°
